This is the latest recevied weather packets stored in our database for station/object BV5AB-13. If no packets are shown the sender has not sent any weather packets the latest 10 day(s).
| Time | Temp. | Humidity | Pressure | Rain* | Wind** | Luminosity | Snow |
|---|---|---|---|---|---|---|---|
| 1778050024 | 28.33° C | 67% | 1001.6 hPa | 0 mm | - | - | - |
| 1778049424 | 28.33° C | 68% | 1001.6 hPa | 0 mm | - | - | - |
| 1778048823 | 28.89° C | 69% | 1001.7 hPa | 0 mm | - | - | - |
| 1778048224 | 28.89° C | 66% | 1001.7 hPa | 0 mm | - | - | - |
| 1778047624 | 28.89° C | 67% | 1001.8 hPa | 0 mm | - | - | - |
| 1778047023 | 28.33° C | 68% | 1001.8 hPa | 0 mm | - | - | - |
| 1778046424 | 28.89° C | 66% | 1001.9 hPa | 0 mm | - | - | - |
| 1778045824 | 29.44° C | 67% | 1002 hPa | 0 mm | - | - | - |
| 1778045224 | 29.44° C | 64% | 1002 hPa | 0 mm | - | - | - |
| 1778044624 | 29.44° C | 64% | 1002.2 hPa | 0 mm | - | - | - |
| 1778044024 | 29.44° C | 65% | 1002.2 hPa | 0 mm | - | - | - |
| 1778043424 | 29.44° C | 67% | 1002.3 hPa | 0 mm | - | - | - |
| 1778042824 | 29.44° C | 68% | 1002.4 hPa | 0 mm | - | - | - |
| 1778042223 | 29.44° C | 63% | 1002.5 hPa | 0 mm | - | - | - |
| 1778041623 | 29.44° C | 56% | 1002.6 hPa | 0 mm | - | - | - |
| 1778041023 | 28.89° C | 58% | 1002.7 hPa | 0 mm | - | - | - |
| 1778040423 | 29.44° C | 63% | 1002.8 hPa | 0 mm | - | - | - |
| 1778039824 | 28.89° C | 66% | 1002.9 hPa | 0 mm | - | - | - |
| 1778039223 | 28.33° C | 66% | 1003.1 hPa | 0 mm | - | - | - |
| 1778038623 | 27.78° C | 63% | 1003.3 hPa | 0 mm | - | - | - |
| 1778038024 | 27.78° C | 66% | 1003.4 hPa | 0 mm | - | - | - |
| 1778037425 | 27.22° C | 66% | 1003.5 hPa | 0 mm | - | - | - |
| 1778036824 | 26.67° C | 69% | 1003.5 hPa | 0 mm | - | - | - |
| 1778036223 | 26.11° C | 69% | 1003.5 hPa | 0 mm | - | - | - |
| 1778035623 | 26.67° C | 71% | 1003.6 hPa | 0 mm | - | - | - |
* Rain latest hour (hover to see other rain measurements)
** Current wind speed in m/s (hover to see current wind gust speed)